owner,sensor,date,latitude,longitude,vertical_datum,wind_speed,wind_to_direction,wind_speed_of_gust,qcFlag 
TCOON,ioos:station:TCOON:003:1,2014-11-01T00:00:00Z,26.8015,-97.4706,0.0,2.7,12.0,3.1,'11111222,11111222,11111222' 
TCOON,ioos:station:TCOON:003:1,2014-11-01T00:06:00Z,26.8015,-97.4706,0.0,2.7,16.0,3.1,'11111222,11111222,11111222' 
TCOON,ioos:station:TCOON:003:1,2014-11-01T00:12:00Z,26.8015,-97.4706,0.0,2.6,5.0,3.0,'11111222,11111222,11111222' 
TCOON,ioos:station:TCOON:003:1,2014-11-01T00:18:00Z,26.8015,-97.4706,0.0,2.6,5.0,3.0,'1111122,1111122,1111122' 
TCOON,ioos:station:TCOON:003:1,2014-11-01T00:24:00Z,26.8015,-97.4706,0.0,3.2,6.0,3.6,'11111222,11111222,11111222' 
TCOON,ioos:station:TCOON:003:1,2014-11-01T00:30:00Z,26.8015,-97.4706,0.0,2.9,4.0,3.4,'11111222,11111222,11111222' 
TCOON,ioos:station:TCOON:003:1,2014-11-01T00:36:00Z,26.8015,-97.4706,0.0,2.8,360.0,3.4,'11111222,11144222,11111222' 
TCOON,ioos:station:TCOON:003:1,2014-11-01T00:42:00Z,26.8015,-97.4706,0.0,2.8,357.0,3.3,'11111222,11111222,11111222' 
TCOON,ioos:station:TCOON:003:1,2014-11-01T00:48:00Z,26.8015,-97.4706,0.0,2.6,358.0,3.2,'11111222,11111222,11111222' 
TCOON,ioos:station:TCOON:003:1,2014-11-01T00:54:00Z,26.8015,-97.4706,0.0,2.6,356.0,2.9,'11111222,11111222,11111222' 
TCOON,ioos:station:TCOON:003:1,2014-11-01T01:00:00Z,26.8015,-97.4706,0.0,2.5,349.0,2.8,'11111222,11111222,11111222' 
TCOON,ioos:station:TCOON:003:1,2014-11-01T01:06:00Z,26.8015,-97.4706,0.0,2.5,350.0,3.1,'11111222,11111222,11111222' 
TCOON,ioos:station:TCOON:003:1,2014-11-01T01:12:00Z,26.8015,-97.4706,0.0,2.3,345.0,2.7,'11111222,11111222,11111222' 
TCOON,ioos:station:TCOON:003:1,2014-11-01T01:18:00Z,26.8015,-97.4706,0.0,2.3,345.0,2.7,'1111122,1111122,1111122' 
TCOON,ioos:station:TCOON:003:1,2014-11-01T01:24:00Z,26.8015,-97.4706,0.0,2.8,333.0,3.1,'11111222,11111222,11111222' 
TCOON,ioos:station:TCOON:003:1,2014-11-01T01:30:00Z,26.8015,-97.4706,0.0,2.9,329.0,3.2,'11111222,11111222,11111222' 
TCOON,ioos:station:TCOON:003:1,2014-11-01T01:36:00Z,26.8015,-97.4706,0.0,2.7,340.0,3.1,'11111222,11111222,11111222' 
TCOON,ioos:station:TCOON:003:1,2014-11-01T01:42:00Z,26.8015,-97.4706,0.0,2.8,337.0,3.3,'11111222,11111222,11111222' 
TCOON,ioos:station:TCOON:003:1,2014-11-01T01:48:00Z,26.8015,-97.4706,0.0,3.2,334.0,3.6,'11111222,11111222,11111222' 
TCOON,ioos:station:TCOON:003:1,2014-11-01T01:54:00Z,26.8015,-97.4706,0.0,2.9,331.0,3.4,'11111222,11111222,11111222' 
TCOON,ioos:station:TCOON:003:1,2014-11-01T02:00:00Z,26.8015,-97.4706,0.0,3.2,318.0,3.5,'11111222,11111222,11111222' 
TCOON,ioos:station:TCOON:003:1,2014-11-01T02:06:00Z,26.8015,-97.4706,0.0,2.9,310.0,3.6,'11111222,11111222,11111222' 
TCOON,ioos:station:TCOON:003:1,2014-11-01T02:12:00Z,26.8015,-97.4706,0.0,3.0,308.0,3.4,'11111222,11111222,11111222' 
TCOON,ioos:station:TCOON:003:1,2014-11-01T02:18:00Z,26.8015,-97.4706,0.0,3.0,308.0,3.4,'1111122,1111122,1111122' 
TCOON,ioos:station:TCOON:003:1,2014-11-01T02:24:00Z,26.8015,-97.4706,0.0,3.2,320.0,3.5,'11111222,11111222,11111222' 
TCOON,ioos:station:TCOON:003:1,2014-11-01T02:30:00Z,26.8015,-97.4706,0.0,3.0,311.0,3.6,'11111222,11111222,11111222' 
TCOON,ioos:station:TCOON:003:1,2014-11-01T02:36:00Z,26.8015,-97.4706,0.0,3.5,320.0,3.8,'11111222,11111222,11111222' 
TCOON,ioos:station:TCOON:003:1,2014-11-01T02:42:00Z,26.8015,-97.4706,0.0,2.9,321.0,3.5,'11111222,11111222,11111222' 
TCOON,ioos:station:TCOON:003:1,2014-11-01T02:48:00Z,26.8015,-97.4706,0.0,3.0,323.0,3.4,'11111222,11111222,11111222' 
TCOON,ioos:station:TCOON:003:1,2014-11-01T02:54:00Z,26.8015,-97.4706,0.0,2.8,328.0,3.5,'11111222,11111222,11111222' 
TCOON,ioos:station:TCOON:003:1,2014-11-01T03:00:00Z,26.8015,-97.4706,0.0,2.9,333.0,3.3,'11111222,11111222,11111222' 
TCOON,ioos:station:TCOON:003:1,2014-11-01T03:06:00Z,26.8015,-97.4706,0.0,3.0,330.0,3.3,'11111222,11111222,11111222' 
TCOON,ioos:station:TCOON:003:1,2014-11-01T03:12:00Z,26.8015,-97.4706,0.0,2.3,322.0,3.2,'11111222,11111222,11111222' 
TCOON,ioos:station:TCOON:003:1,2014-11-01T03:18:00Z,26.8015,-97.4706,0.0,2.3,322.0,3.2,'1111122,1111122,1111122' 
TCOON,ioos:station:TCOON:003:1,2014-11-01T03:24:00Z,26.8015,-97.4706,0.0,3.3,306.0,3.8,'11111222,11111222,11111222' 
TCOON,ioos:station:TCOON:003:1,2014-11-01T03:30:00Z,26.8015,-97.4706,0.0,3.2,307.0,4.1,'11111222,11111222,11111222' 
TCOON,ioos:station:TCOON:003:1,2014-11-01T03:36:00Z,26.8015,-97.4706,0.0,3.2,308.0,3.8,'11111222,11111222,11111222' 
TCOON,ioos:station:TCOON:003:1,2014-11-01T03:42:00Z,26.8015,-97.4706,0.0,3.5,310.0,4.1,'11111222,11111222,11111222' 
TCOON,ioos:station:TCOON:003:1,2014-11-01T03:48:00Z,26.8015,-97.4706,0.0,3.6,313.0,4.1,'11111222,11111222,11111222' 
TCOON,ioos:station:TCOON:003:1,2014-11-01T03:54:00Z,26.8015,-97.4706,0.0,4.2,322.0,4.6,'11111222,11111222,11111222' 
TCOON,ioos:station:TCOON:003:1,2014-11-01T04:00:00Z,26.8015,-97.4706,0.0,3.8,324.0,4.4,'11111222,11111222,11111222' 
TCOON,ioos:station:TCOON:003:1,2014-11-01T04:06:00Z,26.8015,-97.4706,0.0,3.8,323.0,4.5,'11111222,11111222,11111222' 
TCOON,ioos:station:TCOON:003:1,2014-11-01T04:12:00Z,26.8015,-97.4706,0.0,3.7,328.0,4.5,'11111222,11111222,11111222' 
TCOON,ioos:station:TCOON:003:1,2014-11-01T04:18:00Z,26.8015,-97.4706,0.0,3.7,328.0,4.5,'1111122,1111122,1111122' 
TCOON,ioos:station:TCOON:003:1,2014-11-01T04:24:00Z,26.8015,-97.4706,0.0,3.6,319.0,4.3,'11111222,11111222,11111222' 
TCOON,ioos:station:TCOON:003:1,2014-11-01T04:30:00Z,26.8015,-97.4706,0.0,3.8,320.0,4.4,'11111222,11111222,11111222' 
TCOON,ioos:station:TCOON:003:1,2014-11-01T04:36:00Z,26.8015,-97.4706,0.0,4.1,326.0,4.7,'11111222,11111222,11111222' 
TCOON,ioos:station:TCOON:003:1,2014-11-01T04:42:00Z,26.8015,-97.4706,0.0,3.9,324.0,4.8,'11111222,11111222,11111222' 
TCOON,ioos:station:TCOON:003:1,2014-11-01T04:48:00Z,26.8015,-97.4706,0.0,4.1,329.0,4.8,'11111222,11111222,11111222' 
TCOON,ioos:station:TCOON:003:1,2014-11-01T04:54:00Z,26.8015,-97.4706,0.0,4.3,330.0,4.7,'11111222,11111222,11111222' 
TCOON,ioos:station:TCOON:003:1,2014-11-01T05:00:00Z,26.8015,-97.4706,0.0,4.5,326.0,5.4,'11111222,11111222,11111222' 
TCOON,ioos:station:TCOON:003:1,2014-11-01T05:06:00Z,26.8015,-97.4706,0.0,5.6,334.0,6.1,'11111222,11111222,11111222' 
TCOON,ioos:station:TCOON:003:1,2014-11-01T05:12:00Z,26.8015,-97.4706,0.0,5.6,334.0,6.1,'1111122,1111122,1111122' 
TCOON,ioos:station:TCOON:003:1,2014-11-01T05:18:00Z,26.8015,-97.4706,0.0,5.0,331.0,6.0,'11111222,11111222,11111222' 
TCOON,ioos:station:TCOON:003:1,2014-11-01T05:24:00Z,26.8015,-97.4706,0.0,5.0,332.0,5.9,'11111222,11111222,11111222' 
TCOON,ioos:station:TCOON:003:1,2014-11-01T05:30:00Z,26.8015,-97.4706,0.0,5.3,338.0,6.0,'11111222,11111222,11111222' 
TCOON,ioos:station:TCOON:003:1,2014-11-01T05:36:00Z,26.8015,-97.4706,0.0,5.7,342.0,6.4,'11111222,11111222,11111222' 
TCOON,ioos:station:TCOON:003:1,2014-11-01T05:42:00Z,26.8015,-97.4706,0.0,6.2,347.0,7.3,'11111222,11111222,11111222' 
TCOON,ioos:station:TCOON:003:1,2014-11-01T05:54:00Z,26.8015,-97.4706,0.0,5.7,359.0,6.8,'11111222,11111222,11111222' 
TCOON,ioos:station:TCOON:003:1,2014-11-01T06:00:00Z,26.8015,-97.4706,0.0,6.0,353.0,7.0,'11111222,11111222,11111222' 
TCOON,ioos:station:TCOON:003:1,2014-11-01T06:06:00Z,26.8015,-97.4706,0.0,5.9,0.0,7.0,'11111222,11111222,11111222' 
TCOON,ioos:station:TCOON:003:1,2014-11-01T06:12:00Z,26.8015,-97.4706,0.0,6.0,2.0,7.3,'11111222,11111222,11111222' 
TCOON,ioos:station:TCOON:003:1,2014-11-01T06:18:00Z,26.8015,-97.4706,0.0,6.6,5.0,7.4,'11111222,11111222,11111222' 
TCOON,ioos:station:TCOON:003:1,2014-11-01T06:24:00Z,26.8015,-97.4706,0.0,5.8,5.0,6.9,'11111222,11111222,11111222' 
TCOON,ioos:station:TCOON:003:1,2014-11-01T06:30:00Z,26.8015,-97.4706,0.0,5.8,7.0,6.9,'11111222,11111222,11111222' 
TCOON,ioos:station:TCOON:003:1,2014-11-01T06:36:00Z,26.8015,-97.4706,0.0,6.1,8.0,6.8,'11111222,11111222,11111222' 
TCOON,ioos:station:TCOON:003:1,2014-11-01T06:42:00Z,26.8015,-97.4706,0.0,5.7,13.0,7.2,'11111222,11111222,11111222' 
TCOON,ioos:station:TCOON:003:1,2014-11-01T06:48:00Z,26.8015,-97.4706,0.0,5.8,15.0,7.2,'11111222,11111222,11111222' 
TCOON,ioos:station:TCOON:003:1,2014-11-01T06:54:00Z,26.8015,-97.4706,0.0,5.8,15.0,7.2,'1111122,1111122,1111122' 
TCOON,ioos:station:TCOON:003:1,2014-11-01T07:00:00Z,26.8015,-97.4706,0.0,5.6,13.0,6.8,'11111222,11111222,11111222' 
TCOON,ioos:station:TCOON:003:1,2014-11-01T07:06:00Z,26.8015,-97.4706,0.0,5.5,10.0,6.4,'11111222,11111222,11111222' 
TCOON,ioos:station:TCOON:003:1,2014-11-01T07:12:00Z,26.8015,-97.4706,0.0,5.5,10.0,6.4,'1111122,1111122,1111122' 
TCOON,ioos:station:TCOON:003:1,2014-11-01T07:18:00Z,26.8015,-97.4706,0.0,5.0,14.0,6.0,'11111222,11111222,11111222' 
TCOON,ioos:station:TCOON:003:1,2014-11-01T07:24:00Z,26.8015,-97.4706,0.0,5.0,17.0,5.7,'11111222,11111222,11111222' 
TCOON,ioos:station:TCOON:003:1,2014-11-01T07:30:00Z,26.8015,-97.4706,0.0,5.2,16.0,6.4,'11111222,11111222,11111222' 
TCOON,ioos:station:TCOON:003:1,2014-11-01T07:36:00Z,26.8015,-97.4706,0.0,5.1,14.0,5.9,'11111222,11111222,11111222' 
TCOON,ioos:station:TCOON:003:1,2014-11-01T07:42:00Z,26.8015,-97.4706,0.0,5.5,21.0,6.5,'11111222,11111222,11111222' 
TCOON,ioos:station:TCOON:003:1,2014-11-01T07:48:00Z,26.8015,-97.4706,0.0,5.4,20.0,6.4,'11111222,11111222,11111222' 
TCOON,ioos:station:TCOON:003:1,2014-11-01T07:54:00Z,26.8015,-97.4706,0.0,5.3,16.0,6.0,'11111222,11111222,11111222' 
TCOON,ioos:station:TCOON:003:1,2014-11-01T08:00:00Z,26.8015,-97.4706,0.0,5.6,15.0,6.5,'11111222,11111222,11111222' 
TCOON,ioos:station:TCOON:003:1,2014-11-01T08:06:00Z,26.8015,-97.4706,0.0,5.5,14.0,6.1,'11111222,11111222,11111222' 
TCOON,ioos:station:TCOON:003:1,2014-11-01T08:12:00Z,26.8015,-97.4706,0.0,5.5,14.0,6.1,'1111122,1111122,1111122' 
TCOON,ioos:station:TCOON:003:1,2014-11-01T08:18:00Z,26.8015,-97.4706,0.0,5.1,15.0,6.4,'11111222,11111222,11111222' 
TCOON,ioos:station:TCOON:003:1,2014-11-01T08:24:00Z,26.8015,-97.4706,0.0,4.9,20.0,5.9,'11111222,11111222,11111222' 
TCOON,ioos:station:TCOON:003:1,2014-11-01T08:30:00Z,26.8015,-97.4706,0.0,4.9,19.0,5.8,'11111222,11111222,11111222' 
TCOON,ioos:station:TCOON:003:1,2014-11-01T08:36:00Z,26.8015,-97.4706,0.0,4.8,20.0,5.5,'11111222,11111222,11111222' 
TCOON,ioos:station:TCOON:003:1,2014-11-01T08:42:00Z,26.8015,-97.4706,0.0,4.7,17.0,5.3,'11111222,11111222,11111222' 
TCOON,ioos:station:TCOON:003:1,2014-11-01T08:48:00Z,26.8015,-97.4706,0.0,4.3,16.0,4.7,'11111222,11111222,11111222' 
TCOON,ioos:station:TCOON:003:1,2014-11-01T08:54:00Z,26.8015,-97.4706,0.0,3.9,16.0,4.8,'11111222,11111222,11111222' 
TCOON,ioos:station:TCOON:003:1,2014-11-01T09:00:00Z,26.8015,-97.4706,0.0,3.4,13.0,4.4,'11111222,11111222,11111222' 
TCOON,ioos:station:TCOON:003:1,2014-11-01T09:06:00Z,26.8015,-97.4706,0.0,3.7,18.0,4.1,'11111222,11111222,11111222' 
TCOON,ioos:station:TCOON:003:1,2014-11-01T09:12:00Z,26.8015,-97.4706,0.0,3.7,18.0,4.1,'1111122,1111122,1111122' 
TCOON,ioos:station:TCOON:003:1,2014-11-01T09:18:00Z,26.8015,-97.4706,0.0,4.0,19.0,4.7,'11111222,11111222,11111222' 
TCOON,ioos:station:TCOON:003:1,2014-11-01T09:24:00Z,26.8015,-97.4706,0.0,4.0,6.0,4.6,'11111222,11111222,11111222' 
TCOON,ioos:station:TCOON:003:1,2014-11-01T09:30:00Z,26.8015,-97.4706,0.0,4.6,4.0,5.2,'11111222,11111222,11111222' 
TCOON,ioos:station:TCOON:003:1,2014-11-01T09:36:00Z,26.8015,-97.4706,0.0,3.9,348.0,5.3,'11111222,11111222,11111222' 
TCOON,ioos:station:TCOON:003:1,2014-11-01T09:42:00Z,26.8015,-97.4706,0.0,4.3,349.0,4.7,'11111222,11111222,11111222' 
TCOON,ioos:station:TCOON:003:1,2014-11-01T09:48:00Z,26.8015,-97.4706,0.0,4.2,353.0,4.9,'11111222,11111222,11111222' 
TCOON,ioos:station:TCOON:003:1,2014-11-01T09:54:00Z,26.8015,-97.4706,0.0,4.3,348.0,5.0,'11111222,11111222,11111222' 
TCOON,ioos:station:TCOON:003:1,2014-11-01T10:00:00Z,26.8015,-97.4706,0.0,4.8,342.0,5.5,'11111222,11111222,11111222' 
TCOON,ioos:station:TCOON:003:1,2014-11-01T10:06:00Z,26.8015,-97.4706,0.0,5.3,349.0,5.7,'11111222,11111222,11111222' 
TCOON,ioos:station:TCOON:003:1,2014-11-01T10:12:00Z,26.8015,-97.4706,0.0,5.3,349.0,5.7,'1111122,1111122,1111122' 
TCOON,ioos:station:TCOON:003:1,2014-11-01T10:18:00Z,26.8015,-97.4706,0.0,5.6,346.0,6.4,'11111222,11111222,11111222' 
TCOON,ioos:station:TCOON:003:1,2014-11-01T10:24:00Z,26.8015,-97.4706,0.0,5.1,349.0,5.9,'11111222,11111222,11111222' 
TCOON,ioos:station:TCOON:003:1,2014-11-01T10:30:00Z,26.8015,-97.4706,0.0,5.4,345.0,6.4,'11111222,11111222,11111222' 
TCOON,ioos:station:TCOON:003:1,2014-11-01T10:36:00Z,26.8015,-97.4706,0.0,5.3,344.0,6.2,'11111222,11111222,11111222' 
TCOON,ioos:station:TCOON:003:1,2014-11-01T10:42:00Z,26.8015,-97.4706,0.0,4.7,344.0,6.2,'11111222,11111222,11111222' 
TCOON,ioos:station:TCOON:003:1,2014-11-01T10:48:00Z,26.8015,-97.4706,0.0,4.8,342.0,5.9,'11111222,11111222,11111222' 
TCOON,ioos:station:TCOON:003:1,2014-11-01T10:54:00Z,26.8015,-97.4706,0.0,5.0,342.0,5.7,'11111222,11111222,11111222' 
TCOON,ioos:station:TCOON:003:1,2014-11-01T11:00:00Z,26.8015,-97.4706,0.0,5.0,342.0,5.5,'11111222,11111222,11111222' 
TCOON,ioos:station:TCOON:003:1,2014-11-01T11:06:00Z,26.8015,-97.4706,0.0,5.5,342.0,6.4,'11111222,11111222,11111222' 
TCOON,ioos:station:TCOON:003:1,2014-11-01T11:12:00Z,26.8015,-97.4706,0.0,5.5,342.0,6.4,'1111122,1111122,1111122' 
TCOON,ioos:station:TCOON:003:1,2014-11-01T11:18:00Z,26.8015,-97.4706,0.0,5.3,342.0,6.2,'11111222,11111222,11111222' 
TCOON,ioos:station:TCOON:003:1,2014-11-01T11:24:00Z,26.8015,-97.4706,0.0,4.8,338.0,5.8,'11111222,11111222,11111222' 
TCOON,ioos:station:TCOON:003:1,2014-11-01T11:30:00Z,26.8015,-97.4706,0.0,5.1,339.0,5.5,'11111222,11111222,11111222' 
TCOON,ioos:station:TCOON:003:1,2014-11-01T11:36:00Z,26.8015,-97.4706,0.0,5.0,341.0,5.9,'11111222,11111222,11111222' 
TCOON,ioos:station:TCOON:003:1,2014-11-01T11:42:00Z,26.8015,-97.4706,0.0,5.0,343.0,5.9,'11111222,11111222,11111222' 
TCOON,ioos:station:TCOON:003:1,2014-11-01T11:48:00Z,26.8015,-97.4706,0.0,5.0,341.0,6.0,'11111222,11111222,11111222' 
TCOON,ioos:station:TCOON:003:1,2014-11-01T11:54:00Z,26.8015,-97.4706,0.0,4.9,344.0,6.0,'11111222,11111222,11111222' 
TCOON,ioos:station:TCOON:003:1,2014-11-01T12:00:00Z,26.8015,-97.4706,0.0,5.7,343.0,6.5,'11111222,11111222,11111222' 
TCOON,ioos:station:TCOON:003:1,2014-11-01T12:06:00Z,26.8015,-97.4706,0.0,4.9,342.0,6.2,'11111222,11111222,11111222' 
TCOON,ioos:station:TCOON:003:1,2014-11-01T12:12:00Z,26.8015,-97.4706,0.0,5.1,345.0,6.1,'11111222,11111222,11111222' 
TCOON,ioos:station:TCOON:003:1,2014-11-01T12:18:00Z,26.8015,-97.4706,0.0,5.1,345.0,6.1,'1111122,1111122,1111122' 
TCOON,ioos:station:TCOON:003:1,2014-11-01T12:24:00Z,26.8015,-97.4706,0.0,5.8,343.0,7.3,'11111222,11111222,11111222' 
TCOON,ioos:station:TCOON:003:1,2014-11-01T12:30:00Z,26.8015,-97.4706,0.0,5.9,348.0,7.8,'11111222,11111222,11111222' 
TCOON,ioos:station:TCOON:003:1,2014-11-01T12:36:00Z,26.8015,-97.4706,0.0,5.9,345.0,7.8,'11111222,11111222,11111222' 
TCOON,ioos:station:TCOON:003:1,2014-11-01T12:42:00Z,26.8015,-97.4706,0.0,5.9,346.0,6.7,'11111222,11111222,11111222' 
TCOON,ioos:station:TCOON:003:1,2014-11-01T12:48:00Z,26.8015,-97.4706,0.0,5.4,345.0,6.4,'11111222,11111222,11111222' 
TCOON,ioos:station:TCOON:003:1,2014-11-01T12:54:00Z,26.8015,-97.4706,0.0,6.1,347.0,6.8,'11111222,11111222,11111222' 
TCOON,ioos:station:TCOON:003:1,2014-11-01T13:00:00Z,26.8015,-97.4706,0.0,5.9,351.0,6.5,'11111222,11111222,11111222' 
TCOON,ioos:station:TCOON:003:1,2014-11-01T13:06:00Z,26.8015,-97.4706,0.0,5.2,352.0,6.3,'11111222,11111222,11111222' 
TCOON,ioos:station:TCOON:003:1,2014-11-01T13:12:00Z,26.8015,-97.4706,0.0,5.2,352.0,6.3,'1111122,1111122,1111122' 
TCOON,ioos:station:TCOON:003:1,2014-11-01T13:18:00Z,26.8015,-97.4706,0.0,5.6,349.0,6.5,'11111222,11111222,11111222' 
TCOON,ioos:station:TCOON:003:1,2014-11-01T13:24:00Z,26.8015,-97.4706,0.0,5.6,349.0,6.2,'11111222,11111222,11111222' 
TCOON,ioos:station:TCOON:003:1,2014-11-01T13:30:00Z,26.8015,-97.4706,0.0,5.6,348.0,6.4,'11111222,11111222,11111222' 
TCOON,ioos:station:TCOON:003:1,2014-11-01T13:36:00Z,26.8015,-97.4706,0.0,6.0,345.0,6.7,'11111222,11111222,11111222' 
TCOON,ioos:station:TCOON:003:1,2014-11-01T13:42:00Z,26.8015,-97.4706,0.0,5.8,346.0,6.8,'11111222,11111222,11111222' 
TCOON,ioos:station:TCOON:003:1,2014-11-01T13:48:00Z,26.8015,-97.4706,0.0,5.5,346.0,6.5,'11111222,11111222,11111222' 
TCOON,ioos:station:TCOON:003:1,2014-11-01T13:54:00Z,26.8015,-97.4706,0.0,5.3,344.0,6.3,'11111222,11111222,11111222' 
TCOON,ioos:station:TCOON:003:1,2014-11-01T14:00:00Z,26.8015,-97.4706,0.0,5.4,343.0,6.3,'11111222,11111222,11111222' 
TCOON,ioos:station:TCOON:003:1,2014-11-01T14:06:00Z,26.8015,-97.4706,0.0,5.5,341.0,6.4,'11111222,11111222,11111222' 
TCOON,ioos:station:TCOON:003:1,2014-11-01T14:12:00Z,26.8015,-97.4706,0.0,5.6,337.0,6.1,'11111222,11111222,11111222' 
TCOON,ioos:station:TCOON:003:1,2014-11-01T14:18:00Z,26.8015,-97.4706,0.0,5.6,337.0,6.1,'1111122,1111122,1111122' 
TCOON,ioos:station:TCOON:003:1,2014-11-01T14:24:00Z,26.8015,-97.4706,0.0,5.7,344.0,6.6,'11111222,11111222,11111222' 
TCOON,ioos:station:TCOON:003:1,2014-11-01T14:30:00Z,26.8015,-97.4706,0.0,5.5,349.0,6.6,'11111222,11111222,11111222' 
TCOON,ioos:station:TCOON:003:1,2014-11-01T14:36:00Z,26.8015,-97.4706,0.0,5.6,353.0,6.2,'11111222,11111222,11111222' 
TCOON,ioos:station:TCOON:003:1,2014-11-01T14:42:00Z,26.8015,-97.4706,0.0,5.5,347.0,6.2,'11111222,11111222,11111222' 
TCOON,ioos:station:TCOON:003:1,2014-11-01T14:48:00Z,26.8015,-97.4706,0.0,5.5,348.0,6.6,'11111222,11111222,11111222' 
TCOON,ioos:station:TCOON:003:1,2014-11-01T14:54:00Z,26.8015,-97.4706,0.0,5.9,345.0,6.3,'11111222,11111222,11111222' 
TCOON,ioos:station:TCOON:003:1,2014-11-01T15:00:00Z,26.8015,-97.4706,0.0,5.4,351.0,6.7,'11111222,11111222,11111222' 
TCOON,ioos:station:TCOON:003:1,2014-11-01T15:06:00Z,26.8015,-97.4706,0.0,5.4,356.0,5.8,'11111222,11111222,11111222' 
TCOON,ioos:station:TCOON:003:1,2014-11-01T15:12:00Z,26.8015,-97.4706,0.0,5.4,356.0,5.8,'1111122,1111122,1111122' 
TCOON,ioos:station:TCOON:003:1,2014-11-01T15:18:00Z,26.8015,-97.4706,0.0,4.5,349.0,5.2,'11111222,11111222,11111222' 
TCOON,ioos:station:TCOON:003:1,2014-11-01T15:24:00Z,26.8015,-97.4706,0.0,4.7,349.0,5.2,'11111222,11111222,11111222' 
TCOON,ioos:station:TCOON:003:1,2014-11-01T15:30:00Z,26.8015,-97.4706,0.0,4.7,346.0,5.6,'11111222,11111222,11111222' 
TCOON,ioos:station:TCOON:003:1,2014-11-01T15:36:00Z,26.8015,-97.4706,0.0,4.4,348.0,5.1,'11111222,11111222,11111222' 
TCOON,ioos:station:TCOON:003:1,2014-11-01T15:42:00Z,26.8015,-97.4706,0.0,4.3,341.0,5.0,'11111222,11111222,11111222' 
TCOON,ioos:station:TCOON:003:1,2014-11-01T15:48:00Z,26.8015,-97.4706,0.0,3.5,337.0,5.5,'11111222,11111222,11111222' 
TCOON,ioos:station:TCOON:003:1,2014-11-01T15:54:00Z,26.8015,-97.4706,0.0,4.3,75.0,5.1,'11111222,11111222,11111222' 
TCOON,ioos:station:TCOON:003:1,2014-11-01T16:00:00Z,26.8015,-97.4706,0.0,5.2,75.0,6.2,'11111222,11111222,11111222' 
TCOON,ioos:station:TCOON:003:1,2014-11-01T16:06:00Z,26.8015,-97.4706,0.0,4.4,63.0,6.0,'11111222,11111222,11111222' 
TCOON,ioos:station:TCOON:003:1,2014-11-01T16:12:00Z,26.8015,-97.4706,0.0,4.3,73.0,5.8,'11111222,11111222,11111222' 
TCOON,ioos:station:TCOON:003:1,2014-11-01T16:18:00Z,26.8015,-97.4706,0.0,4.3,73.0,5.8,'1111122,1111122,1111122' 
TCOON,ioos:station:TCOON:003:1,2014-11-01T16:24:00Z,26.8015,-97.4706,0.0,5.4,62.0,6.8,'11111222,11111222,11111222' 
TCOON,ioos:station:TCOON:003:1,2014-11-01T16:30:00Z,26.8015,-97.4706,0.0,4.2,63.0,6.1,'11111222,11111222,11111222' 
TCOON,ioos:station:TCOON:003:1,2014-11-01T16:36:00Z,26.8015,-97.4706,0.0,5.6,50.0,6.8,'11111222,11111222,11111222' 
TCOON,ioos:station:TCOON:003:1,2014-11-01T16:42:00Z,26.8015,-97.4706,0.0,5.1,77.0,6.5,'11111222,11111222,11111222' 
TCOON,ioos:station:TCOON:003:1,2014-11-01T16:48:00Z,26.8015,-97.4706,0.0,5.7,69.0,6.7,'11111222,11111222,11111222' 
TCOON,ioos:station:TCOON:003:1,2014-11-01T16:54:00Z,26.8015,-97.4706,0.0,4.2,73.0,5.8,'11111222,11111222,11111222' 
TCOON,ioos:station:TCOON:003:1,2014-11-01T17:00:00Z,26.8015,-97.4706,0.0,5.0,54.0,6.6,'11111222,11111222,11111222' 
TCOON,ioos:station:TCOON:003:1,2014-11-01T17:06:00Z,26.8015,-97.4706,0.0,4.4,81.0,6.9,'11111222,11111222,11111222' 
TCOON,ioos:station:TCOON:003:1,2014-11-01T17:12:00Z,26.8015,-97.4706,0.0,4.4,81.0,6.9,'1111122,1111122,1111122' 
TCOON,ioos:station:TCOON:003:1,2014-11-01T17:18:00Z,26.8015,-97.4706,0.0,4.7,67.0,6.6,'11111222,11111222,11111222' 
TCOON,ioos:station:TCOON:003:1,2014-11-01T17:24:00Z,26.8015,-97.4706,0.0,5.1,73.0,7.8,'11111222,11111222,11111222' 
TCOON,ioos:station:TCOON:003:1,2014-11-01T17:30:00Z,26.8015,-97.4706,0.0,4.8,94.0,7.0,'11111222,11111222,11111222' 
TCOON,ioos:station:TCOON:003:1,2014-11-01T17:36:00Z,26.8015,-97.4706,0.0,5.4,76.0,6.7,'11111222,11111222,11111222' 
TCOON,ioos:station:TCOON:003:1,2014-11-01T17:42:00Z,26.8015,-97.4706,0.0,4.8,67.0,7.2,'11111222,11111222,11111222' 
TCOON,ioos:station:TCOON:003:1,2014-11-01T17:48:00Z,26.8015,-97.4706,0.0,4.8,45.0,6.7,'11111222,11111222,11111222' 
TCOON,ioos:station:TCOON:003:1,2014-11-01T17:54:00Z,26.8015,-97.4706,0.0,4.0,41.0,6.2,'11111222,11111222,11111222' 
TCOON,ioos:station:TCOON:003:1,2014-11-01T18:00:00Z,26.8015,-97.4706,0.0,3.9,80.0,6.1,'11111222,11111222,11111222' 
TCOON,ioos:station:TCOON:003:1,2014-11-01T18:06:00Z,26.8015,-97.4706,0.0,3.7,61.0,5.7,'11111222,11111222,11111222' 
TCOON,ioos:station:TCOON:003:1,2014-11-01T18:12:00Z,26.8015,-97.4706,0.0,4.0,63.0,5.5,'11111222,11111222,11111222' 
TCOON,ioos:station:TCOON:003:1,2014-11-01T18:18:00Z,26.8015,-97.4706,0.0,4.0,63.0,5.5,'1111122,1111122,1111122' 
TCOON,ioos:station:TCOON:003:1,2014-11-01T18:24:00Z,26.8015,-97.4706,0.0,4.4,91.0,6.7,'11111222,11111222,11111222' 
TCOON,ioos:station:TCOON:003:1,2014-11-01T18:30:00Z,26.8015,-97.4706,0.0,4.2,46.0,6.6,'11111222,11111222,11111222' 
TCOON,ioos:station:TCOON:003:1,2014-11-01T18:36:00Z,26.8015,-97.4706,0.0,2.8,77.0,5.3,'11111222,11111222,11111222' 
TCOON,ioos:station:TCOON:003:1,2014-11-01T18:42:00Z,26.8015,-97.4706,0.0,4.3,68.0,5.0,'11111222,11111222,11111222' 
TCOON,ioos:station:TCOON:003:1,2014-11-01T18:48:00Z,26.8015,-97.4706,0.0,5.2,88.0,6.6,'11111222,11111222,11111222' 
TCOON,ioos:station:TCOON:003:1,2014-11-01T18:54:00Z,26.8015,-97.4706,0.0,3.1,85.0,6.0,'11111222,11111222,11111222' 
TCOON,ioos:station:TCOON:003:1,2014-11-01T19:00:00Z,26.8015,-97.4706,0.0,4.9,59.0,6.5,'11111222,11111222,11111222' 
TCOON,ioos:station:TCOON:003:1,2014-11-01T19:06:00Z,26.8015,-97.4706,0.0,4.5,87.0,7.0,'11111222,11111222,11111222' 
TCOON,ioos:station:TCOON:003:1,2014-11-01T19:12:00Z,26.8015,-97.4706,0.0,4.5,87.0,7.0,'1111122,1111122,1111122' 
TCOON,ioos:station:TCOON:003:1,2014-11-01T19:18:00Z,26.8015,-97.4706,0.0,5.0,67.0,6.3,'11111222,11111222,11111222' 
TCOON,ioos:station:TCOON:003:1,2014-11-01T19:24:00Z,26.8015,-97.4706,0.0,3.5,46.0,6.2,'11111222,11111222,11111222' 
TCOON,ioos:station:TCOON:003:1,2014-11-01T19:30:00Z,26.8015,-97.4706,0.0,4.8,79.0,6.5,'11111222,11111222,11111222' 
TCOON,ioos:station:TCOON:003:1,2014-11-01T19:36:00Z,26.8015,-97.4706,0.0,5.0,54.0,6.1,'11111222,11111222,11111222' 
TCOON,ioos:station:TCOON:003:1,2014-11-01T19:42:00Z,26.8015,-97.4706,0.0,6.0,64.0,7.3,'11111222,11111222,11111222' 
TCOON,ioos:station:TCOON:003:1,2014-11-01T19:48:00Z,26.8015,-97.4706,0.0,5.0,76.0,7.8,'11111222,11111222,11111222' 
TCOON,ioos:station:TCOON:003:1,2014-11-01T19:54:00Z,26.8015,-97.4706,0.0,4.5,76.0,6.8,'11111222,11111222,11111222' 
TCOON,ioos:station:TCOON:003:1,2014-11-01T20:00:00Z,26.8015,-97.4706,0.0,4.6,50.0,7.3,'11111222,11111222,11111222' 
TCOON,ioos:station:TCOON:003:1,2014-11-01T20:06:00Z,26.8015,-97.4706,0.0,6.1,77.0,7.2,'11111222,11111222,11111222' 
TCOON,ioos:station:TCOON:003:1,2014-11-01T20:12:00Z,26.8015,-97.4706,0.0,5.6,73.0,6.4,'11111222,11111222,11111222' 
TCOON,ioos:station:TCOON:003:1,2014-11-01T20:18:00Z,26.8015,-97.4706,0.0,5.6,73.0,6.4,'1111122,1111122,1111122' 
TCOON,ioos:station:TCOON:003:1,2014-11-01T20:24:00Z,26.8015,-97.4706,0.0,5.1,55.0,6.2,'11111222,11111222,11111222' 
TCOON,ioos:station:TCOON:003:1,2014-11-01T20:30:00Z,26.8015,-97.4706,0.0,4.1,63.0,6.5,'11111222,11111222,11111222' 